"startDT [UTC]","vpos","CH4 [ppm]","stdev(CH4) [ppm]","CO2 [ppm]","stdev(CO2) [ppm]","H2O [ppm]","stdev(H2O)","p_LGR [torr]","T_LGR [C]","mt1_LGR [us]","mt2_LGR [us]","T_ECpre [C]","T_EC1 [C]","T_EC2 [C]","p_inlet [hPa]","p_in [hPa]","p_out [hPa]","T_inlet [C]","RH_inlet [%]","dwpt_inlet [C]","T_vent [C]","RH_vent [%]","dwpt_vent [C]","flow_vent [l min-1]","flow_inlet [l min-1]","dwpt_sample [C]","T_room [C]"
2012-06-30 00:00:00,0.0,1.8884,0.0010,394.16,0.31,38.0,25.8,138.08,30.72,24.65,36.46,0.94,17.10,-26.47,-60,541,-929,25.9,15.4,-2.3,25.9,1.4,-30.7,5.73,2.37,-27.7,30.2
2012-06-30 00:01:00,0.0,1.8885,0.0009,394.24,0.29,36.6,26.9,138.08,30.72,24.65,36.45,0.94,17.15,-26.47,-60,540,-929,25.9,15.7,-2.1,25.9,1.4,-30.7,5.73,2.38,-27.7,30.2
2012-06-30 00:02:00,0.0,1.8886,0.0009,394.10,0.29,30.2,25.1,138.08,30.72,24.65,36.46,0.94,17.19,-26.47,-60,540,-930,25.9,15.7,-2.1,25.9,1.4,-30.7,5.73,2.38,-27.7,30.2
2012-06-30 00:03:00,0.0,1.8886,0.0010,394.01,0.25,27.2,26.2,138.08,30.72,24.65,36.46,0.94,17.24,-26.47,-60,540,-930,25.9,15.8,-2.0,25.9,1.4,-30.7,5.73,2.37,-27.7,30.3
2012-06-30 00:04:00,0.0,1.8890,0.0010,393.95,0.35,34.7,28.0,138.08,30.72,24.65,36.46,0.95,17.29,-26.46,-60,540,-930,25.9,15.7,-2.1,25.9,1.4,-30.7,5.73,2.36,-27.7,30.2
2012-06-30 00:05:00,0.0,1.8895,0.0008,393.97,0.24,35.0,30.4,138.08,30.72,24.64,36.46,0.95,17.33,-26.47,-60,541,-930,25.9,15.7,-2.1,25.9,1.4,-30.7,5.73,2.36,-27.8,30.2
2012-06-30 00:06:00,0.0,1.8890,0.0009,393.81,0.27,38.2,28.2,138.08,30.72,24.65,36.45,0.95,17.36,-26.47,-60,541,-929,25.9,16.0,-1.8,25.9,1.4,-30.7,5.73,2.37,-27.8,30.2
2012-06-30 00:07:00,0.0,1.8888,0.0009,393.97,0.37,32.4,26.6,138.08,30.72,24.65,36.45,0.94,17.40,-26.46,-60,541,-929,25.9,15.8,-2.0,25.9,1.4,-30.7,5.73,2.38,-27.8,30.2
2012-06-30 00:08:00,0.0,1.8892,0.0007,394.00,0.34,29.6,26.4,138.08,30.73,24.64,36.45,0.95,17.44,-26.45,-60,540,-929,25.9,15.5,-2.3,25.9,1.4,-30.7,5.73,2.38,-27.8,30.2
2012-06-30 00:09:00,0.0,1.8894,0.0008,393.75,0.33,34.5,29.2,138.08,30.73,24.64,36.46,0.94,17.47,-26.45,-60,540,-929,25.9,15.9,-1.9,25.9,1.4,-30.7,5.73,2.38,-27.8,30.2
2012-06-30 00:10:00,0.0,1.8892,0.0008,393.85,0.30,29.6,27.1,138.08,30.73,24.65,36.46,0.95,17.51,-26.45,-60,540,-930,25.9,15.8,-2.0,25.9,1.4,-30.6,5.73,2.36,-27.8,30.2
2012-06-30 00:11:00,0.0,1.8897,0.0009,393.83,0.29,26.0,26.5,138.08,30.73,24.65,36.46,0.95,17.54,-26.45,-60,541,-930,25.9,16.2,-1.7,25.9,1.4,-30.7,5.73,2.36,-27.8,30.2
2012-06-30 00:12:00,0.0,1.8902,0.0009,393.97,0.27,28.2,26.4,138.08,30.73,24.64,36.46,0.94,17.57,-26.45,-60,540,-930,25.9,16.4,-1.5,25.9,1.4,-30.7,5.73,2.36,-27.8,30.2
2012-06-30 00:13:00,0.0,1.8900,0.0010,393.90,0.31,31.3,24.7,138.08,30.73,24.64,36.46,0.95,17.59,-26.45,-60,541,-930,25.9,16.7,-1.2,25.8,1.4,-30.8,5.73,2.37,-27.8,30.2
2012-06-30 00:14:00,0.0,1.8901,0.0009,393.84,0.32,33.1,23.2,138.08,30.73,24.64,36.46,0.94,17.62,-26.45,-60,540,-929,25.9,16.5,-1.4,25.9,1.4,-30.6,5.73,2.38,-27.8,30.2
2012-06-30 00:15:00,0.0,1.8899,0.0010,393.65,0.33,37.6,26.3,138.08,30.73,24.65,36.46,0.94,17.65,-26.45,-60,540,-929,25.9,16.5,-1.4,25.9,1.4,-30.8,5.73,2.38,-27.8,30.2
2012-06-30 00:16:00,0.0,1.8898,0.0009,393.61,0.30,32.5,25.3,138.08,30.73,24.65,36.47,0.95,17.68,-26.44,-60,540,-929,25.9,16.1,-1.8,25.9,1.4,-30.7,5.73,2.37,-27.8,30.3
2012-06-30 00:17:00,0.0,1.8891,0.0009,393.69,0.32,30.1,22.6,138.08,30.73,24.65,36.46,0.95,17.70,-26.44,-60,541,-930,25.9,16.2,-1.6,25.9,1.4,-30.7,5.73,2.37,-27.8,30.2
2012-06-30 00:18:00,0.0,1.8891,0.0012,393.64,0.30,29.7,28.4,138.08,30.73,24.65,36.46,0.94,17.73,-26.44,-60,540,-930,25.9,16.3,-1.6,25.9,1.4,-30.7,5.73,2.36,-27.8,30.2
2012-06-30 00:19:00,0.0,1.8888,0.0008,393.73,0.27,29.1,24.8,138.08,30.73,24.64,36.46,0.92,17.74,-26.44,-60,540,-930,25.9,15.7,-2.1,25.9,1.4,-30.7,5.73,2.37,-27.8,30.2
2012-06-30 00:20:00,0.0,1.8883,0.0009,393.76,0.28,29.7,25.1,138.08,30.73,24.65,36.46,0.94,17.77,-26.44,-60,541,-930,25.9,15.9,-1.9,25.9,1.4,-30.7,5.73,2.37,-27.8,30.2
2012-06-30 00:21:00,0.0,1.8886,0.0008,393.72,0.28,36.7,25.4,138.08,30.73,24.64,36.46,0.94,17.79,-26.43,-60,540,-930,25.9,16.2,-1.6,25.9,1.4,-30.7,5.73,2.38,-27.8,30.2
2012-06-30 00:22:00,0.0,1.8886,0.0008,393.44,0.30,29.7,26.6,138.08,30.73,24.65,36.46,0.94,17.80,-26.44,-60,541,-929,25.9,16.0,-1.8,25.9,1.4,-30.7,5.73,2.38,-27.8,30.2
2012-06-30 00:23:00,0.0,1.8887,0.0008,393.43,0.27,30.4,26.6,138.08,30.73,24.65,36.46,0.93,17.82,-26.43,-60,541,-929,25.9,15.1,-2.6,25.9,1.4,-30.7,5.73,2.38,-27.8,30.2
2012-06-30 00:24:00,0.0,1.8884,0.0008,393.46,0.32,31.0,25.6,138.08,30.73,24.65,36.46,0.95,17.85,-26.43,-60,541,-929,25.9,15.2,-2.5,25.9,1.4,-30.7,5.73,2.37,-27.8,30.2
2012-06-30 00:25:00,0.0,1.8885,0.0009,393.60,0.31,30.3,23.5,138.08,30.74,24.64,36.46,0.93,17.86,-26.43,-60,540,-930,25.9,15.4,-2.3,25.9,1.4,-30.7,5.73,2.36,-27.8,30.2
2012-06-30 00:26:00,0.0,1.8881,0.0008,393.34,0.34,38.0,27.6,138.08,30.74,24.65,36.46,0.93,17.88,-26.43,-60,541,-930,25.9,15.3,-2.4,25.9,1.4,-30.8,5.73,2.36,-27.8,30.2
2012-06-30 00:27:00,0.0,1.8885,0.0009,393.51,0.25,27.6,25.7,138.08,30.74,24.65,36.46,0.94,17.89,-26.43,-60,540,-930,25.9,14.9,-2.8,25.9,1.4,-30.8,5.73,2.37,-27.8,30.2
2012-06-30 00:28:00,0.0,1.8887,0.0009,393.58,0.30,31.0,25.0,138.08,30.74,24.64,36.46,0.92,17.90,-26.43,-60,541,-930,25.9,14.9,-2.8,25.9,1.4,-30.8,5.73,2.38,-27.8,30.2
2012-06-30 00:29:00,0.0,1.8888,0.0009,393.42,0.40,25.1,25.3,138.08,30.74,24.65,36.46,0.94,17.92,-26.43,-60,541,-930,25.9,15.3,-2.4,25.9,1.4,-30.9,5.73,2.38,-27.8,30.2
2012-06-30 00:30:00,0.0,1.8891,0.0009,393.45,0.36,27.8,27.0,138.08,30.74,24.65,36.46,0.94,17.93,-26.42,-60,541,-929,25.9,15.0,-2.7,25.9,1.4,-30.8,5.73,2.38,-27.8,30.2
2012-06-30 00:31:00,0.0,1.8891,0.0009,393.73,0.32,32.1,30.1,138.08,30.74,24.65,36.46,0.94,17.94,-26.43,-61,541,-929,25.9,15.0,-2.7,25.9,1.4,-30.8,5.73,2.37,-27.8,30.2
2012-06-30 00:32:00,0.0,1.8892,0.0009,393.75,0.30,36.6,25.0,138.08,30.74,24.64,36.46,0.94,17.95,-26.42,-60,541,-929,25.9,15.3,-2.4,25.9,1.4,-30.9,5.73,2.36,-27.8,30.2
2012-06-30 00:33:00,0.0,1.8893,0.0009,393.69,0.29,29.6,26.6,138.08,30.74,24.64,36.45,1.13,17.19,-26.43,-60,541,-930,25.9,15.3,-2.4,25.9,1.4,-30.9,5.73,2.36,-27.8,30.2
2012-06-30 00:34:00,0.0,1.8891,0.0008,393.72,0.30,31.3,26.8,138.08,30.74,24.65,36.46,1.04,15.16,-26.43,-60,541,-930,25.9,15.2,-2.6,25.9,1.4,-30.9,5.73,2.38,-27.8,30.2
2012-06-30 00:35:00,0.0,1.8889,0.0009,393.59,0.30,32.0,25.8,138.08,30.75,24.65,36.45,1.01,12.85,-26.43,-61,541,-930,25.9,14.7,-3.0,25.9,1.4,-30.8,5.73,2.38,-27.8,30.2
2012-06-30 00:36:00,0.0,1.8887,0.0008,393.45,0.33,28.9,26.4,138.08,30.75,24.65,36.46,1.10,10.53,-26.42,-61,541,-930,25.9,14.9,-2.8,25.9,1.4,-30.7,5.73,2.38,-27.8,30.2
2012-06-30 00:37:00,0.0,1.8884,0.0008,393.61,0.27,24.1,23.3,138.08,30.75,24.65,36.45,1.00,8.28,-26.42,-61,541,-930,25.9,14.8,-2.9,25.8,1.4,-30.7,5.73,2.38,-27.8,30.2
2012-06-30 00:38:00,0.0,1.8885,0.0009,393.82,0.28,24.5,21.0,138.08,30.75,24.65,36.46,1.00,6.12,-26.40,-61,541,-930,25.9,14.8,-2.9,25.9,1.4,-30.7,5.73,2.38,-27.8,30.2
2012-06-30 00:39:00,0.0,1.8889,0.0008,393.82,0.30,33.8,26.4,138.08,30.75,24.65,36.45,1.11,4.06,-26.38,-60,541,-930,25.9,15.0,-2.7,25.8,1.4,-30.7,5.73,2.37,-27.8,30.1
2012-06-30 00:40:00,0.0,1.8891,0.0008,393.50,0.29,27.3,24.2,138.08,30.75,24.64,36.45,1.02,2.10,-26.36,-60,541,-930,25.9,15.6,-2.2,25.8,1.4,-30.7,5.73,2.37,-27.8,30.0
2012-06-30 00:41:00,0.0,1.8893,0.0008,393.37,0.30,31.7,23.3,138.08,30.75,24.64,36.46,1.00,0.25,-26.34,-61,541,-930,25.9,15.5,-2.3,25.8,1.4,-30.7,5.73,2.37,-27.8,30.0
2012-06-30 00:42:00,0.0,1.8891,0.0009,393.60,0.32,25.4,22.4,138.08,30.74,24.65,36.46,1.08,-1.50,-26.33,-61,541,-929,25.9,15.2,-2.5,25.8,1.4,-30.7,5.73,2.37,-27.8,30.1
2012-06-30 00:43:00,0.0,1.8898,0.0008,393.61,0.31,31.8,27.0,138.08,30.74,24.64,36.46,1.03,-3.04,-26.31,-61,541,-929,25.9,15.4,-2.4,25.8,1.4,-30.8,5.73,2.37,-27.9,30.1
2012-06-30 00:44:00,0.0,1.8890,0.0009,393.51,0.32,31.1,26.8,138.08,30.74,24.65,36.47,0.98,-4.58,-26.30,-60,541,-929,25.9,15.3,-2.5,25.8,1.4,-30.7,5.73,2.38,-27.8,30.1
2012-06-30 00:45:00,0.0,1.8888,0.0009,393.42,0.28,29.5,24.3,138.08,30.75,24.65,36.46,1.07,-6.04,-26.29,-60,541,-930,25.9,15.9,-2.0,25.8,1.4,-30.7,5.73,2.38,-27.8,30.1
2012-06-30 00:46:00,0.0,1.8897,0.0008,393.54,0.30,32.5,25.5,138.08,30.75,24.64,36.46,1.05,-7.13,-26.28,-60,541,-930,25.9,16.0,-1.9,25.8,1.4,-30.7,5.73,2.38,-27.9,30.0
2012-06-30 00:47:00,0.0,1.8896,0.0008,393.53,0.26,29.5,28.5,138.08,30.75,24.65,36.47,0.96,-8.47,-26.27,-60,541,-930,25.9,15.9,-1.9,25.8,1.4,-30.7,5.73,2.39,-27.9,30.0
2012-06-30 00:48:00,0.0,1.8900,0.0008,393.64,0.29,31.0,23.6,138.08,30.75,24.65,36.46,1.02,-9.52,-26.26,-60,541,-930,25.9,15.9,-1.9,25.8,1.4,-30.7,5.73,2.38,-27.8,30.0
2012-06-30 00:49:00,0.0,1.8900,0.0007,393.67,0.33,28.3,26.8,138.08,30.75,24.65,36.46,1.08,-10.69,-26.26,-60,541,-930,25.9,16.1,-1.8,25.8,1.4,-30.8,5.73,2.37,-27.9,30.0
2012-06-30 00:50:00,0.0,1.8901,0.0010,393.51,0.29,29.4,26.4,138.08,30.75,24.65,36.45,1.01,-11.76,-26.26,-60,541,-930,25.9,16.4,-1.6,25.8,1.4,-30.7,5.73,2.38,-27.8,30.0
2012-06-30 00:51:00,0.0,1.8903,0.0008,393.38,0.40,26.7,28.9,138.08,30.75,24.65,36.45,0.97,-12.78,-26.25,-60,541,-931,25.9,16.8,-1.2,25.8,1.4,-30.7,5.73,2.37,-27.9,30.0
2012-06-30 00:52:00,0.0,1.8902,0.0010,393.31,0.27,28.1,23.3,138.08,30.75,24.64,36.46,1.04,-13.74,-26.26,-60,541,-931,25.9,16.7,-1.3,25.8,1.4,-30.7,5.73,2.37,-27.8,30.0
2012-06-30 00:53:00,0.0,1.8899,0.0008,393.48,0.33,28.5,23.8,138.08,30.75,24.65,36.45,1.08,-14.62,-26.26,-60,541,-931,25.9,16.7,-1.3,25.8,1.4,-30.7,5.73,2.37,-27.9,30.0
2012-06-30 00:54:00,0.0,1.8898,0.0008,393.36,0.35,32.1,24.7,138.08,30.75,24.65,36.46,0.99,-15.44,-26.26,-60,541,-930,25.9,16.4,-1.5,25.8,1.4,-30.7,5.73,2.37,-27.9,30.1
2012-06-30 00:55:00,0.0,1.8901,0.0008,393.54,0.32,32.8,24.3,138.08,30.75,24.64,36.46,0.98,-16.18,-26.27,-60,540,-930,25.9,16.6,-1.4,25.8,1.4,-30.7,5.73,2.38,-27.9,30.1
2012-06-30 00:56:00,0.0,1.8901,0.0009,393.52,0.27,29.0,24.2,138.08,30.75,24.65,36.47,1.05,-16.94,-26.27,-60,541,-930,25.9,16.2,-1.7,25.8,1.4,-30.7,5.73,2.38,-27.9,30.0
2012-06-30 00:57:00,0.0,1.8897,0.0009,393.46,0.27,29.7,24.6,138.08,30.75,24.65,36.46,1.06,-17.66,-26.28,-60,541,-930,25.9,15.8,-2.1,25.8,1.4,-30.7,5.73,2.38,-27.9,30.0
2012-06-30 00:58:00,0.0,1.8897,0.0010,393.56,0.28,27.9,29.7,138.08,30.75,24.65,36.46,0.98,-18.34,-26.29,-60,541,-930,25.9,15.9,-1.9,25.8,1.4,-30.8,5.73,2.38,-27.9,30.0
2012-06-30 00:59:00,0.0,1.8899,0.0009,393.44,0.29,29.9,26.5,138.08,30.75,24.65,36.47,0.99,-18.95,-26.30,-60,541,-930,25.9,15.9,-2.0,25.8,1.4,-30.7,5.73,2.38,-27.9,30.0
2012-06-30 01:00:00,0.0,1.8894,0.0007,393.49,0.35,26.4,25.7,138.08,30.75,24.65,36.46,1.06,-19.60,-26.30,-60,541,-930,25.9,15.8,-2.0,25.8,1.4,-30.7,5.73,2.38,-27.9,30.0
2012-06-30 01:01:00,0.0,1.8891,0.0009,393.45,0.29,26.8,23.5,138.08,30.75,24.65,36.46,1.05,-20.18,-26.31,-60,541,-930,25.8,15.6,-2.2,25.8,1.4,-30.7,5.73,2.38,-27.9,30.0
2012-06-30 01:02:00,0.0,1.8896,0.0009,393.62,0.32,30.8,27.6,138.08,30.75,24.65,36.45,0.97,-20.74,-26.32,-60,541,-930,25.8,15.8,-2.1,25.8,1.4,-30.7,5.73,2.38,-27.9,30.0
2012-06-30 01:03:00,0.0,1.8900,0.0009,393.75,0.30,29.9,25.8,138.08,30.74,24.65,36.45,0.98,-21.27,-26.34,-61,541,-930,25.8,15.9,-1.9,25.8,1.4,-30.7,5.73,2.37,-27.9,30.0
2012-06-30 01:04:00,0.0,1.8897,0.0008,393.76,0.34,24.8,21.0,138.08,30.74,24.65,36.45,1.05,-21.75,-26.35,-60,541,-930,25.9,16.0,-1.9,25.8,1.4,-30.7,5.73,2.37,-27.9,30.0
2012-06-30 01:05:00,0.0,1.8896,0.0008,393.76,0.25,27.6,24.9,138.08,30.74,24.64,36.45,1.05,-22.21,-26.36,-60,541,-930,25.9,15.8,-2.1,25.8,1.4,-30.8,5.73,2.37,-27.9,30.0
2012-06-30 01:06:00,0.0,1.8894,0.0009,393.48,0.32,32.4,25.2,138.08,30.74,24.64,36.46,0.97,-22.65,-26.37,-60,541,-931,25.8,16.3,-1.6,25.8,1.4,-30.8,5.73,2.38,-27.9,30.0
2012-06-30 01:07:00,0.0,1.8902,0.0010,393.50,0.30,32.7,25.4,138.08,30.74,24.64,36.46,0.97,-23.06,-26.38,-60,541,-930,25.8,16.2,-1.7,25.8,1.4,-30.7,5.73,2.38,-27.9,30.0
2012-06-30 01:08:00,0.0,1.8907,0.0008,393.64,0.31,34.3,27.8,138.08,30.74,24.64,36.45,1.04,-23.44,-26.40,-60,541,-931,25.8,16.4,-1.6,25.8,1.4,-30.8,5.73,2.38,-27.9,30.0
2012-06-30 01:09:00,0.0,1.8904,0.0009,393.57,0.28,27.8,25.7,138.08,30.74,24.64,36.45,1.06,-23.79,-26.41,-60,540,-931,25.8,16.3,-1.7,25.8,1.4,-30.8,5.73,2.38,-27.9,30.0
2012-06-30 01:10:00,0.0,1.8894,0.0008,393.22,0.27,31.8,26.8,138.08,30.74,24.65,36.46,0.98,-24.13,-26.42,-60,540,-931,25.8,16.2,-1.7,25.8,1.4,-30.7,5.73,2.39,-27.9,30.1
2012-06-30 01:11:00,0.0,1.8892,0.0009,393.58,0.30,25.7,20.1,138.08,30.74,24.65,36.45,0.97,-24.45,-26.43,-60,540,-930,25.8,15.5,-2.3,25.8,1.4,-30.8,5.73,2.38,-27.9,30.1
2012-06-30 01:12:00,0.0,1.8895,0.0010,393.36,0.29,34.9,25.8,138.08,30.74,24.65,36.46,1.03,-24.74,-26.45,-60,540,-930,25.8,15.9,-2.0,25.8,1.4,-31.0,5.73,2.38,-27.9,30.1
2012-06-30 01:13:00,0.0,1.8895,0.0009,393.33,0.32,31.0,26.6,138.08,30.74,24.65,36.46,1.06,-25.02,-26.46,-60,540,-930,25.8,16.0,-1.9,25.8,1.4,-31.0,5.73,2.39,-27.9,30.0
2012-06-30 01:14:00,0.0,1.8893,0.0009,393.35,0.33,24.7,23.3,138.08,30.74,24.65,36.45,1.00,-25.28,-26.47,-60,541,-930,25.8,16.3,-1.6,25.7,1.4,-31.0,5.73,2.38,-27.9,30.0
2012-06-30 01:15:00,0.0,1.8892,0.0007,393.45,0.23,32.5,22.3,138.08,30.74,24.65,36.46,0.96,-25.53,-26.48,-60,541,-930,25.8,16.1,-1.9,25.7,1.4,-30.9,5.73,2.38,-27.9,30.0
2012-06-30 01:16:00,0.0,1.8896,0.0009,393.45,0.26,29.1,23.9,138.08,30.74,24.64,36.46,1.00,-25.76,-26.49,-60,541,-930,25.8,16.4,-1.6,25.8,1.4,-31.0,5.73,2.38,-27.9,30.1
2012-06-30 01:17:00,0.0,1.8893,0.0008,393.55,0.35,27.8,23.0,138.08,30.74,24.65,36.46,1.06,-25.98,-26.50,-60,541,-930,25.8,15.9,-2.0,25.8,1.4,-31.0,5.73,2.38,-27.9,30.1
2012-06-30 01:18:00,0.0,1.8891,0.0008,393.58,0.30,26.9,23.5,138.08,30.74,24.65,36.45,1.02,-26.19,-26.52,-60,540,-930,25.8,16.2,-1.8,25.8,1.4,-30.9,5.73,2.37,-27.9,30.1
2012-06-30 01:19:00,0.0,1.8889,0.0009,393.37,0.23,33.2,26.8,138.08,30.74,24.65,36.46,0.96,-26.38,-26.52,-60,541,-930,25.8,16.3,-1.7,25.7,1.4,-31.0,5.73,2.38,-27.9,30.0
2012-06-30 01:20:00,0.0,1.8890,0.0009,393.54,0.32,24.0,20.6,138.08,30.74,24.65,36.46,0.91,-26.40,-26.53,-60,541,-930,25.8,15.7,-2.2,25.7,1.4,-31.0,5.73,2.37,-27.9,30.0
2012-06-30 01:21:00,0.0,1.8887,0.0011,393.39,0.29,29.2,25.8,138.08,30.74,24.65,36.45,1.03,-26.10,-26.54,-60,541,-931,25.8,16.2,-1.8,25.8,1.4,-31.0,5.73,2.38,-27.9,30.0
2012-06-30 01:22:00,0.0,1.8886,0.0008,393.52,0.32,32.9,25.7,138.08,30.74,24.65,36.45,1.05,-26.19,-26.55,-60,541,-931,25.8,16.0,-1.9,25.8,1.4,-31.0,5.73,2.38,-27.9,30.1
2012-06-30 01:23:00,0.0,1.8882,0.0008,393.51,0.32,29.7,25.6,138.08,30.74,24.65,36.46,1.03,-26.36,-26.56,-60,541,-931,25.8,15.6,-2.3,25.8,1.4,-31.0,5.73,2.38,-27.9,30.0
2012-06-30 01:24:00,0.0,1.8878,0.0008,393.37,0.32,29.8,24.2,138.08,30.74,24.64,36.46,0.93,-26.51,-26.57,-60,541,-931,25.8,15.8,-2.1,25.7,1.4,-31.1,5.73,2.38,-27.9,30.0
2012-06-30 01:25:00,0.0,1.8883,0.0010,393.61,0.28,22.5,23.1,138.08,30.74,24.64,36.45,0.98,-26.23,-26.58,-60,541,-931,25.8,16.0,-1.9,25.7,1.4,-31.2,5.73,2.38,-27.9,30.0
2012-06-30 01:26:00,0.0,1.8884,0.0010,393.42,0.37,35.2,27.9,138.08,30.74,24.65,36.46,0.98,-26.17,-26.59,-60,540,-931,25.8,15.9,-2.0,25.8,1.4,-31.2,5.73,2.39,-27.9,30.0
2012-06-30 01:27:00,0.0,1.8885,0.0009,393.40,0.30,30.3,20.8,138.08,30.74,24.64,36.46,1.03,-26.32,-26.60,-60,541,-930,25.8,15.9,-2.0,25.8,1.4,-31.2,5.73,2.39,-27.9,30.0
2012-06-30 01:28:00,0.0,1.8884,0.0010,393.66,0.25,29.4,23.9,138.08,30.74,24.65,36.46,1.06,-26.49,-26.61,-60,541,-930,25.8,15.4,-2.4,25.7,1.4,-31.2,5.73,2.39,-27.9,30.0
2012-06-30 01:29:00,0.0,1.8882,0.0010,393.73,0.32,27.8,24.5,138.08,30.74,24.65,36.45,0.95,-26.47,-26.62,-60,540,-930,25.8,15.6,-2.3,25.7,1.4,-31.2,5.73,2.38,-27.9,30.0
2012-06-30 01:30:00,0.0,1.8877,0.0008,393.51,0.28,21.3,20.2,138.08,30.74,24.65,36.46,1.03,-26.18,-26.62,-60,540,-930,25.8,15.7,-2.1,25.8,1.4,-31.1,5.73,2.38,-27.9,30.0
2012-06-30 01:31:00,0.0,1.8872,0.0008,393.68,0.30,34.3,25.3,138.08,30.74,24.65,36.45,0.95,-26.28,-26.62,-60,540,-930,25.8,15.7,-2.2,25.7,1.4,-31.1,5.73,2.38,-27.9,30.0
2012-06-30 01:32:00,0.0,1.8874,0.0010,393.47,0.25,33.4,28.5,138.08,30.74,24.65,36.46,0.97,-26.46,-25.75,-60,541,-931,25.8,16.0,-1.9,25.7,1.4,-30.9,5.73,2.38,-27.9,30.0
2012-06-30 01:33:00,0.0,1.8877,0.0009,393.69,0.29,27.0,26.9,138.08,30.74,24.65,36.45,0.84,-26.61,-23.91,-60,541,-931,25.8,15.8,-2.1,25.7,1.6,-29.7,5.73,2.38,-27.9,30.0
2012-06-30 01:34:00,0.0,1.8874,0.0009,393.53,0.44,26.2,26.0,138.08,30.74,24.65,36.46,0.83,-26.69,-21.93,-60,540,-931,25.8,16.4,-1.6,25.7,1.7,-28.7,5.73,2.38,-27.9,30.0
2012-06-30 01:35:00,0.0,1.8876,0.0008,393.49,0.38,24.5,21.9,138.08,30.74,24.65,36.46,0.87,-26.73,-19.99,-60,540,-931,25.8,16.1,-1.8,25.7,1.8,-28.1,5.73,2.39,-28.0,29.9
2012-06-30 01:36:00,0.0,1.8874,0.0009,393.54,0.32,27.6,24.7,138.08,30.74,24.65,36.46,0.93,-26.74,-18.13,-60,541,-931,25.8,16.3,-1.7,25.7,1.9,-27.9,5.73,2.38,-28.0,30.0
2012-06-30 01:37:00,0.0,1.8870,0.0010,394.04,0.29,24.9,24.0,138.08,30.74,24.64,36.46,0.95,-26.72,-16.36,-60,541,-931,25.8,15.8,-2.1,25.7,1.9,-27.9,5.73,2.39,-27.9,30.0
2012-06-30 01:38:00,0.0,1.8863,0.0008,393.96,0.35,29.0,25.3,138.08,30.74,24.65,36.46,0.89,-26.70,-14.68,-60,540,-931,25.8,15.9,-2.0,25.7,1.8,-28.0,5.73,2.39,-28.0,30.0
2012-06-30 01:39:00,0.0,1.8863,0.0009,393.90,0.31,35.4,28.3,138.08,30.74,24.65,36.46,0.83,-26.69,-13.09,-60,541,-931,25.8,16.3,-1.7,25.7,1.8,-28.2,5.73,2.39,-28.0,30.0
2012-06-30 01:40:00,0.0,1.8860,0.0010,394.18,0.34,29.3,23.0,138.08,30.74,24.65,36.45,0.84,-26.66,-11.59,-60,541,-930,25.8,15.9,-2.0,25.7,1.8,-28.4,5.73,2.39,-27.9,30.0
2012-06-30 01:41:00,0.0,1.8851,0.0008,394.21,0.27,27.1,26.7,138.08,30.74,24.65,36.46,0.89,-26.63,-10.16,-60,540,-930,25.8,15.8,-2.1,25.8,1.7,-28.6,5.73,2.39,-27.9,30.0
2012-06-30 01:42:00,0.0,1.8848,0.0010,394.30,0.31,26.2,24.3,138.08,30.74,24.65,36.46,0.93,-26.60,-8.82,-60,540,-930,25.8,15.8,-2.1,25.7,1.7,-28.7,5.73,2.39,-27.9,30.0
2012-06-30 01:43:00,0.0,1.8850,0.0008,394.24,0.32,30.3,29.5,138.08,30.74,24.64,36.46,0.95,-26.57,-7.54,-60,540,-930,25.8,15.6,-2.3,25.7,1.7,-28.9,5.73,2.38,-27.9,30.0
2012-06-30 01:44:00,0.0,1.8843,0.0010,394.29,0.31,28.8,24.9,138.08,30.74,24.65,36.46,0.91,-26.55,-6.33,-60,540,-930,25.8,15.7,-2.2,25.8,1.7,-29.0,5.73,2.38,-27.9,30.1
2012-06-30 01:45:00,0.0,1.8843,0.0009,394.34,0.31,25.0,24.5,138.08,30.74,24.65,36.46,0.85,-26.52,-5.18,-60,541,-931,25.8,15.6,-2.3,25.8,1.7,-29.1,5.73,2.38,-27.9,30.1
2012-06-30 01:46:00,0.0,1.8843,0.0009,394.35,0.29,29.2,23.9,138.08,30.74,24.65,36.45,0.86,-26.50,-4.08,-60,541,-931,25.8,15.8,-2.1,25.8,1.6,-29.2,5.73,2.38,-27.9,30.1
2012-06-30 01:47:00,0.0,1.8841,0.0010,394.62,0.28,29.1,27.0,138.08,30.75,24.64,36.46,0.90,-26.47,-3.03,-60,540,-931,25.8,15.2,-2.6,25.8,1.6,-29.2,5.73,2.39,-27.9,30.1
2012-06-30 01:48:00,0.0,1.8839,0.0010,394.54,0.28,31.7,25.3,138.08,30.75,24.65,36.45,0.93,-26.45,-2.04,-60,541,-931,25.8,15.5,-2.3,25.8,1.6,-29.2,5.73,2.39,-27.8,30.1
2012-06-30 01:49:00,0.0,1.8843,0.0009,394.30,0.32,27.1,28.1,138.08,30.74,24.65,36.46,0.95,-26.42,-1.10,-60,541,-931,25.8,16.0,-1.9,25.8,1.6,-29.4,5.73,2.39,-27.8,30.1
2012-06-30 01:50:00,0.0,1.8836,0.0010,394.63,0.25,29.4,28.0,138.08,30.75,24.65,36.46,0.96,-26.40,-0.20,-60,541,-931,25.9,15.5,-2.4,25.8,1.6,-29.4,5.73,2.39,-27.8,30.1
2012-06-30 01:51:00,0.0,1.8834,0.0010,394.75,0.26,30.2,21.3,138.08,30.75,24.65,36.46,0.94,-26.38,0.65,-60,541,-931,25.8,15.4,-2.4,25.8,1.6,-29.4,5.73,2.39,-27.8,30.1
2012-06-30 01:52:00,0.0,1.8832,0.0010,394.66,0.28,32.1,25.2,138.08,30.75,24.65,36.45,0.89,-26.36,1.46,-60,540,-931,25.8,15.7,-2.2,25.8,1.6,-29.6,5.73,2.38,-27.8,30.1
2012-06-30 01:53:00,0.0,1.8829,0.0008,394.74,0.31,30.3,27.0,138.08,30.74,24.65,36.45,0.88,-26.34,2.21,-60,541,-931,25.8,15.4,-2.4,25.8,1.6,-29.6,5.73,2.38,-27.8,30.1
2012-06-30 01:54:00,0.0,1.8827,0.0009,394.70,0.30,31.0,25.0,138.08,30.74,24.65,36.46,0.88,-26.32,2.85,-60,540,-931,25.8,15.5,-2.3,25.8,1.6,-29.6,5.73,2.38,-27.8,30.1
2012-06-30 01:55:00,0.0,1.8828,0.0009,394.74,0.29,29.2,23.1,138.08,30.75,24.64,36.46,0.89,-26.30,3.22,-60,541,-931,25.9,15.8,-2.1,25.8,1.6,-29.6,5.73,2.38,-27.8,30.1
2012-06-30 01:56:00,0.0,1.8819,0.0010,394.65,0.31,31.7,25.6,138.08,30.75,24.64,36.46,0.93,-26.28,3.43,-60,541,-931,25.9,15.8,-2.1,25.8,1.6,-29.7,5.73,2.38,-27.8,30.2
2012-06-30 01:57:00,0.0,1.8818,0.0008,394.96,0.25,34.5,27.1,138.08,30.75,24.65,36.46,0.94,-26.26,3.78,-60,541,-931,25.9,15.4,-2.4,25.8,1.6,-29.7,5.73,2.39,-27.7,30.1
2012-06-30 01:58:00,0.0,1.8816,0.0010,394.85,0.29,27.0,24.3,138.08,30.75,24.65,36.46,0.96,-26.24,4.31,-60,541,-931,25.9,15.7,-2.2,25.8,1.6,-29.8,5.73,2.40,-27.8,30.1
2012-06-30 01:59:00,0.0,1.8819,0.0008,394.76,0.25,28.3,24.8,138.08,30.75,24.64,36.45,0.96,-26.23,4.93,-60,541,-931,25.9,15.7,-2.1,25.8,1.6,-29.8,5.73,2.39,-27.8,30.1
2012-06-30 02:00:00,0.0,1.8817,0.0010,394.83,0.25,27.4,23.8,138.08,30.74,24.65,36.45,0.93,-26.21,5.52,-60,541,-931,25.9,15.9,-2.0,25.8,1.6,-29.8,5.73,2.39,-27.7,30.1
2012-06-30 02:01:00,0.0,1.8821,0.0010,394.53,0.31,36.4,27.8,138.08,30.74,24.65,36.46,0.88,-26.19,6.06,-60,541,-931,25.9,16.2,-1.8,25.8,1.6,-29.8,5.73,2.38,-27.7,30.1
2012-06-30 02:02:00,0.0,1.8822,0.0009,394.90,0.34,35.4,29.0,138.08,30.74,24.65,36.45,0.89,-26.18,6.57,-60,540,-931,25.9,15.8,-2.0,25.8,1.5,-29.9,5.73,2.38,-27.7,30.1
2012-06-30 02:03:00,0.0,1.8824,0.0009,394.70,0.25,26.1,21.8,138.08,30.74,24.64,36.45,0.91,-26.17,7.07,-60,540,-931,25.9,16.0,-1.9,25.8,1.5,-29.9,5.73,2.38,-27.7,30.1
2012-06-30 02:04:00,0.0,1.8823,0.0010,394.72,0.29,36.9,26.8,138.08,30.74,24.64,36.46,0.92,-26.15,7.54,-60,541,-931,25.9,16.0,-1.9,25.8,1.5,-29.9,5.73,2.37,-27.7,30.1
2012-06-30 02:05:00,0.0,1.8824,0.0009,394.79,0.26,35.5,28.7,138.08,30.74,24.64,36.46,0.93,-26.14,7.98,-60,541,-931,25.9,15.8,-2.0,25.8,1.5,-30.0,5.73,2.38,-27.7,30.1
2012-06-30 02:06:00,0.0,1.8821,0.0008,394.80,0.28,32.7,25.2,138.08,30.74,24.65,36.45,0.93,-26.13,8.39,-60,540,-931,25.8,16.0,-1.9,25.8,1.5,-29.9,5.73,2.38,-27.7,30.1
2012-06-30 02:07:00,0.0,1.8819,0.0010,394.89,0.28,36.9,26.0,138.08,30.75,24.65,36.46,0.94,-26.12,8.79,-60,540,-931,25.9,15.9,-2.0,25.8,1.5,-30.0,5.73,2.39,-27.7,30.1
2012-06-30 02:08:00,0.0,1.8822,0.0009,394.89,0.31,41.7,31.7,138.08,30.75,24.64,36.46,0.95,-26.11,9.18,-60,541,-931,25.9,15.7,-2.2,25.8,1.5,-29.9,5.73,2.39,-27.7,30.1
2012-06-30 02:09:00,0.0,1.8822,0.0009,395.01,0.28,34.8,28.0,138.08,30.75,24.64,36.46,0.96,-26.10,9.55,-60,541,-931,25.9,15.7,-2.1,25.8,1.5,-29.9,5.73,2.39,-27.7,30.1
2012-06-30 02:10:00,0.0,1.8821,0.0009,394.86,0.34,34.7,30.0,138.08,30.75,24.65,36.45,0.96,-26.09,9.92,-60,541,-931,25.9,15.9,-2.0,25.8,1.5,-29.9,5.73,2.38,-27.7,30.2
2012-06-30 02:11:00,0.0,1.8825,0.0009,395.03,0.29,36.4,25.3,138.08,30.75,24.65,36.45,0.93,-26.07,10.28,-60,541,-931,25.9,16.0,-1.9,25.8,1.5,-30.0,5.73,2.38,-27.7,30.1
2012-06-30 02:12:00,0.0,1.8827,0.0007,394.73,0.30,31.2,28.5,138.08,30.75,24.65,36.46,0.91,-26.06,10.63,-60,541,-932,25.9,16.0,-1.9,25.8,1.5,-29.9,5.73,2.37,-27.7,30.1
2012-06-30 02:13:00,0.0,1.8826,0.0010,395.01,0.31,47.6,25.7,138.08,30.75,24.65,36.46,0.90,-26.06,10.97,-60,541,-932,25.9,15.6,-2.2,25.8,1.5,-29.9,5.73,2.37,-27.7,30.1
2012-06-30 02:14:00,0.0,1.8815,0.0008,395.37,0.29,35.1,24.3,138.08,30.75,24.65,36.46,0.90,-26.05,11.30,-60,541,-932,25.9,15.1,-2.6,25.8,1.5,-30.0,5.73,2.38,-27.7,30.1
2012-06-30 02:15:00,0.0,1.8816,0.0010,395.36,0.28,31.0,22.1,138.08,30.75,24.65,36.46,0.90,-26.04,11.62,-60,540,-932,25.9,15.1,-2.7,25.8,1.5,-29.9,5.73,2.38,-27.7,30.1
2012-06-30 02:16:00,0.0,1.8816,0.0009,395.48,0.32,35.1,29.0,138.08,30.75,24.64,36.46,0.90,-26.03,11.93,-60,541,-932,25.9,15.1,-2.7,25.8,1.5,-30.0,5.73,2.39,-27.7,30.1
2012-06-30 02:17:00,0.0,1.8817,0.0010,395.30,0.31,30.8,25.6,138.08,30.75,24.64,36.47,0.93,-26.03,12.23,-60,540,-932,25.9,15.2,-2.6,25.8,1.5,-29.9,5.73,2.39,-27.7,30.1
2012-06-30 02:18:00,0.0,1.8818,0.0010,395.43,0.25,42.3,26.4,138.08,30.75,24.64,36.45,0.93,-26.02,12.52,-60,540,-932,25.9,15.3,-2.5,25.8,1.5,-29.9,5.73,2.39,-27.7,30.1
2012-06-30 02:19:00,0.0,1.8809,0.0010,395.43,0.25,39.6,31.2,138.08,30.75,24.65,36.45,0.93,-26.01,12.79,-60,541,-932,25.9,15.2,-2.6,25.8,1.5,-30.0,5.73,2.38,-27.7,30.1
2012-06-30 02:20:00,0.0,1.8813,0.0008,394.97,0.31,34.7,30.0,138.08,30.75,24.64,36.46,0.95,-26.01,13.06,-60,541,-932,25.9,15.9,-2.0,25.8,1.5,-30.0,5.73,2.38,-27.7,30.1